Location: Unspecified
(41.5516°N, 88.1098°W)
Time: 13:23:02
(UTC-06:00)

Resurs 1-4 Rocket - Visible Passes

Search period start: 24 February 2017 00:00
Search period end: 06 March 2017 00:00
Orbit: 801 x 813 km, 98.5° (Epoch: 23 February)

Date Brightness Start Highest point End Pass type
(mag) Time Alt. Az. Time Alt. Az. Time Alt. Az.
02 Mar 4.6 03:36:23 10° NNW 03:36:23 10° NNW 03:36:23 10° NNW visible
03 Mar 4.6 03:11:19 10° N 03:11:39 12° N 03:11:39 12° N visible
04 Mar 4.7 02:46:31 10° N 02:46:54 12° N 02:46:54 12° N visible
05 Mar 4.9 02:21:55 10° NNE 02:22:11 11° NNE 02:22:11 11° NNE visible
